[TLELIST] Archives

 

[TLELIST] Current TLEs

August 10th 2024 PST

HST 1 20580U 90037B 24222.76432068 .00011418 00000-0 52866-3 0 9997 2 20580 28.4695 345.9708 0001775 261.3424 98.6968 15.18518051685188 ISS (ZARYA) 1 25544U 98067A 24223.29546296 .00018961 00000-0 34112-3 0 9995 2 25544 51.6406 47.2736 0006013 181.7353 161.7641 15.49843702466938 CXO 1 25867U 99040B 24226.04365229 .00000804 00000-0 00000+0 0 9998 2 25867 42.3363 149.0122 8829752 299.7113 0.7527 0.37809554 25934 ...Continue Reading

[TLELIST] Current TLEs

August 10th 2024 PST

HST 1 20580U 90037B 24222.76432068 .00011418 00000-0 52866-3 0 9997 2 20580 28.4695 345.9708 0001775 261.3424 98.6968 15.18518051685188 ISS (ZARYA) 1 25544U 98067A 24223.29546296 .00018961 00000-0 34112-3 0 9995 2 25544 51.6406 47.2736 0006013 181.7353 161.7641 15.49843702466938 CXO 1 25867U 99040B 24226.04365229 .00000804 00000-0 00000+0 0 9998 2 25867 42.3363 149.0122 8829752 299.7113 0.7527 0.37809554 25934 ...Continue Reading

[TLELIST] Current TLEs

August 9th 2024 PST

HST 1 20580U 90037B 24221.77847841 .00011361 00000-0 52629-3 0 9990 2 20580 28.4695 352.5831 0001791 249.2544 110.7857 15.18496760685034 ISS (ZARYA) 1 25544U 98067A 24222.03339765 .00017959 00000-0 32418-3 0 9990 2 25544 51.6399 53.5258 0005829 176.5439 320.7860 15.49790766466749 CXO 1 25867U 99040B 24223.39936605 .00000718 00000-0 00000-0 0 9990 2 25867 42.3113 149.1512 8833948 299.6350 0.7198 0.37811338 14761 ...Continue Reading

[TLELIST] Current TLEs

August 8th 2024 PST

HST 1 20580U 90037B 24220.79262190 .00009306 00000-0 42978-3 0 9991 2 20580 28.4698 359.1961 0001829 235.0923 124.9498 15.18474887684886 ISS (ZARYA) 1 25544U 98067A 24221.06706303 .00017895 00000-0 32346-3 0 9997 2 25544 51.6392 58.3140 0005861 173.2146 329.1956 15.49755186466599 CXO 1 25867U 99040B 24223.39936605 .00000718 00000-0 00000-0 0 9990 2 25867 42.3113 149.1512 8833948 299.6350 0.7198 0.37811338 14761 ...Continue Reading

[TLELIST] Current TLEs

August 7th 2024 PST

HST 1 20580U 90037B 24219.80675292 .00008759 00000-0 40424-3 0 9997 2 20580 28.4698 5.8084 0001842 222.1787 137.8664 15.18456971684733 ISS (ZARYA) 1 25544U 98067A 24220.40831780 .00019091 00000-0 34471-3 0 9993 2 25544 51.6397 61.5752 0006026 170.0477 254.7551 15.49734731466491 CXO 1 25867U 99040B 24220.75370900 .00000655 00000-0 00000+0 0 9996 2 25867 42.2716 149.3233 8839176 299.5289 0.5440 0.37809098 25917 ...Continue Reading

[TLELIST] Current TLEs

August 7th 2024 PST

HST 1 20580U 90037B 24219.80675292 .00008759 00000-0 40424-3 0 9997 2 20580 28.4698 5.8084 0001842 222.1787 137.8664 15.18456971684733 ISS (ZARYA) 1 25544U 98067A 24220.40831780 .00019091 00000-0 34471-3 0 9993 2 25544 51.6397 61.5752 0006026 170.0477 254.7551 15.49734731466491 CXO 1 25867U 99040B 24220.75370900 .00000655 00000-0 00000+0 0 9996 2 25867 42.2716 149.3233 8839176 299.5289 0.5440 0.37809098 25917 ...Continue Reading

[TLELIST] Current TLEs

August 6th 2024 PST

HST 1 20580U 90037B 24218.82087296 .00009351 00000-0 43235-3 0 9991 2 20580 28.4695 12.4207 0001922 207.0965 152.9528 15.18439112684588 ISS (ZARYA) 1 25544U 98067A 24219.12402954 .00017877 00000-0 32397-3 0 9992 2 25544 51.6401 67.9362 0006169 166.0815 288.9946 15.49680634466290 CXO 1 25867U 99040B 24220.75370900 .00000655 00000-0 00000+0 0 9996 2 25867 42.2716 149.3233 8839176 299.5289 0.5440 0.37809098 25917 ...Continue Reading

[TLELIST] Current TLEs

August 6th 2024 PST

HST 1 20580U 90037B 24218.82087296 .00009351 00000-0 43235-3 0 9991 2 20580 28.4695 12.4207 0001922 207.0965 152.9528 15.18439112684588 ISS (ZARYA) 1 25544U 98067A 24219.12402954 .00017877 00000-0 32397-3 0 9992 2 25544 51.6401 67.9362 0006169 166.0815 288.9946 15.49680634466290 CXO 1 25867U 99040B 24220.75370900 .00000655 00000-0 00000+0 0 9996 2 25867 42.2716 149.3233 8839176 299.5289 0.5440 0.37809098 25917 ...Continue Reading

[TLELIST] Current TLEs

August 5th 2024 PST

HST 1 20580U 90037B 24217.83498059 .00014015 00000-0 65251-3 0 9999 2 20580 28.4695 19.0330 0001991 195.3674 164.6859 15.18427102684437 ISS (ZARYA) 1 25544U 98067A 24218.40833036 .00017319 00000-0 31445-3 0 9995 2 25544 51.6407 71.4795 0006064 163.3211 256.3606 15.49651608466189 CXO 1 25867U 99040B 24220.75370900 .00000655 00000-0 00000+0 0 9996 2 25867 42.2716 149.3233 8839176 299.5289 0.5440 0.37809098 25917 ...Continue Reading

[TLELIST] Current TLEs

August 4th 2024 PST

HST 1 20580U 90037B 24217.17771280 .00009129 00000-0 42228-3 0 9995 2 20580 28.4695 23.4409 0002024 187.5392 172.5171 15.18406816684592 ISS (ZARYA) 1 25544U 98067A 24217.25647171 .00017268 00000-0 31399-3 0 9991 2 25544 51.6404 77.1858 0006206 160.1273 309.4674 15.49610582466002 CXO 1 25867U 99040B 24218.10874336 .00000614 00000-0 00000-0 0 9990 2 25867 42.2159 149.5335 8843784 299.3853 0.4937 0.37805422 14744 ...Continue Reading
  • This mailing list is a public mailing list - anyone may join or leave, at any time.
  • This mailing list is announce-only.

International Space Station (ISS) / Hubble Space Telescope (HST) / Chandra X-Ray Observatory Orbital Data via EMAIL

Privacy Policy:

Private list